UAL338 MMSD-KDEN

Flight info

Callsign UAL338
Flight time N/A
Altitude 35000
Route UKUXA1A UKUXA DCT LERIV UT9 BECON/N0460F340 DCT LAYEN/N0454F350 DCT ABQ/N0454F360 DCT GNDLA TBARR4
Aircraft A321/M-SDE3FGHIRWY/LB1

Departure

Time 2026-05-03 20:17
Airport Los Cabos International Airport (MMSD)

Arrival

Time N/A
Airport Denver International Airport (KDEN)
Time Latitude Longitude Altitude Speed Heading
2026-05-03 20:15 23.16018 -109.71962 378 ft 15 kts 354°
2026-05-03 20:15 23.16116 -109.71972 380 ft 14 kts 355°
2026-05-03 20:15 23.16228 -109.71983 382 ft 18 kts 355°
2026-05-03 20:15 23.16359 -109.71999 385 ft 20 kts 353°
2026-05-03 20:16 23.16490 -109.72014 388 ft 18 kts 354°
2026-05-03 20:16 23.16558 -109.72086 389 ft 16 kts 276°
2026-05-03 20:16 23.16522 -109.72207 390 ft 19 kts 209°
2026-05-03 20:16 23.16388 -109.72211 387 ft 21 kts 173°
2026-05-03 20:17 23.16039 -109.72170 378 ft 85 kts 174°
2026-05-03 20:17 23.15248 -109.72079 362 ft 141 kts 174°
2026-05-03 20:17 23.14152 -109.71964 529 ft 169 kts 170°
2026-05-03 20:17 23.12965 -109.71896 1095 ft 174 kts 171°
2026-05-03 20:18 23.11761 -109.71783 1793 ft 172 kts 171°
2026-05-03 20:18 23.10566 -109.71633 2326 ft 177 kts 172°
2026-05-03 20:18 23.09265 -109.71464 2506 ft 199 kts 172°
2026-05-03 20:18 23.07813 -109.71279 2636 ft 222 kts 172°
2026-05-03 20:19 23.06189 -109.71077 2832 ft 246 kts 173°
2026-05-03 20:19 23.04450 -109.71021 3342 ft 255 kts 192°
2026-05-03 20:19 23.02906 -109.71949 3986 ft 260 kts 228°
2026-05-03 20:19 23.02130 -109.73685 4590 ft 266 kts 262°
2026-05-03 20:20 23.02413 -109.75649 5252 ft 269 kts 293°
2026-05-03 20:20 23.03408 -109.77377 5953 ft 271 kts 305°
2026-05-03 20:20 23.04619 -109.78951 6618 ft 272 kts 308°
2026-05-03 20:20 23.05870 -109.80501 7214 ft 274 kts 308°
2026-05-03 20:21 23.07098 -109.82092 7807 ft 275 kts 306°
2026-05-03 20:21 23.08284 -109.83732 8436 ft 277 kts 303°
2026-05-03 20:21 23.09438 -109.85412 9069 ft 278 kts 302°
2026-05-03 20:21 23.10577 -109.87124 9645 ft 281 kts 302°
2026-05-03 20:22 23.11714 -109.88854 10176 ft 283 kts 303°
2026-05-03 20:22 23.13091 -109.90451 10325 ft 305 kts 316°
2026-05-03 20:22 23.14906 -109.91792 10447 ft 327 kts 326°
2026-05-03 20:22 23.16923 -109.93056 10554 ft 342 kts 326°
2026-05-03 20:23 23.19011 -109.94410 10679 ft 357 kts 325°
2026-05-03 20:23 23.21171 -109.95842 10787 ft 371 kts 325°
2026-05-03 20:23 23.23401 -109.97332 11069 ft 380 kts 325°
2026-05-03 20:23 23.25658 -109.98842 11475 ft 383 kts 325°
2026-05-03 20:24 23.27940 -110.00363 11903 ft 386 kts 325°
2026-05-03 20:24 23.30207 -110.01870 12323 ft 388 kts 326°
2026-05-03 20:24 23.32518 -110.03406 12769 ft 391 kts 326°
2026-05-03 20:24 23.34844 -110.04952 13192 ft 393 kts 326°
2026-05-03 20:25 23.37186 -110.06510 13638 ft 396 kts 326°
2026-05-03 20:25 23.39542 -110.08079 14056 ft 398 kts 326°
2026-05-03 20:25 23.41907 -110.09656 14436 ft 400 kts 326°
2026-05-03 20:25 23.44292 -110.11245 14797 ft 403 kts 327°
2026-05-03 20:26 23.46690 -110.12843 15189 ft 405 kts 327°
2026-05-03 20:26 23.49068 -110.14428 15593 ft 408 kts 327°
2026-05-03 20:26 23.51495 -110.16047 15997 ft 410 kts 327°
2026-05-03 20:26 23.53856 -110.17801 16397 ft 412 kts 320°
2026-05-03 20:27 23.55960 -110.19922 16806 ft 413 kts 314°
2026-05-03 20:27 23.57998 -110.22133 17205 ft 415 kts 314°
2026-05-03 20:27 23.60052 -110.24361 17571 ft 418 kts 314°
2026-05-03 20:27 23.62117 -110.26600 17960 ft 420 kts 314°
2026-05-03 20:28 23.64195 -110.28850 18332 ft 421 kts 314°
2026-05-03 20:28 23.66252 -110.31074 18649 ft 423 kts 314°
2026-05-03 20:28 23.68376 -110.33369 18966 ft 426 kts 314°
2026-05-03 20:28 23.70454 -110.35617 19292 ft 427 kts 314°
2026-05-03 20:29 23.72565 -110.37904 19628 ft 429 kts 314°
2026-05-03 20:29 23.74687 -110.40203 19947 ft 430 kts 314°
2026-05-03 20:29 23.76814 -110.42507 20274 ft 431 kts 314°
2026-05-03 20:29 23.78948 -110.44818 20606 ft 433 kts 313°
2026-05-03 20:30 23.81083 -110.47138 20922 ft 434 kts 313°
2026-05-03 20:30 23.83257 -110.49430 21229 ft 437 kts 319°
2026-05-03 20:30 23.85862 -110.51157 21500 ft 444 kts 335°
2026-05-03 20:30 23.88840 -110.51937 21764 ft 452 kts 353°
2026-05-03 20:31 23.91992 -110.51656 22010 ft 462 kts 11°
2026-05-03 20:31 23.94962 -110.50259 22252 ft 472 kts 31°
2026-05-03 20:31 23.97410 -110.47846 22494 ft 480 kts 50°
2026-05-03 20:31 23.99028 -110.44637 22743 ft 487 kts 71°
2026-05-03 20:32 23.99589 -110.40986 22987 ft 490 kts 91°
2026-05-03 20:32 23.99018 -110.37329 23213 ft 491 kts 111°
2026-05-03 20:32 23.97379 -110.34086 23434 ft 488 kts 132°
2026-05-03 20:32 23.94875 -110.31648 23645 ft 481 kts 152°
2026-05-03 20:33 23.91913 -110.30086 23837 ft 479 kts 160°
2026-05-03 20:33 23.88837 -110.28673 24064 ft 480 kts 161°
2026-05-03 20:33 23.85798 -110.27124 24281 ft 486 kts 153°
2026-05-03 20:33 23.83045 -110.24943 24490 ft 493 kts 140°
2026-05-03 20:34 23.80782 -110.22098 24691 ft 500 kts 126°
2026-05-03 20:34 23.79156 -110.18730 24885 ft 505 kts 112°
2026-05-03 20:34 23.78101 -110.15057 25085 ft 508 kts 107°
2026-05-03 20:34 23.77090 -110.11348 25302 ft 511 kts 108°
2026-05-03 20:35 23.76044 -110.07633 25510 ft 513 kts 108°
2026-05-03 20:35 23.74990 -110.03963 25728 ft 515 kts 108°
2026-05-03 20:35 23.73912 -110.00231 25954 ft 517 kts 108°
2026-05-03 20:35 23.72834 -109.96481 26173 ft 519 kts 108°
2026-05-03 20:36 23.71756 -109.92714 26420 ft 519 kts 108°
2026-05-03 20:36 23.70688 -109.88954 26744 ft 519 kts 108°
2026-05-03 20:36 23.69626 -109.85193 27025 ft 519 kts 108°
2026-05-03 20:36 23.68564 -109.81428 27309 ft 519 kts 107°
2026-05-03 20:37 23.67500 -109.77669 27591 ft 518 kts 108°
2026-05-03 20:37 23.66434 -109.73914 27920 ft 518 kts 108°
2026-05-03 20:37 23.65368 -109.70171 28228 ft 517 kts 107°
2026-05-03 20:37 23.64301 -109.66425 28551 ft 517 kts 108°
2026-05-03 20:38 23.63249 -109.62733 28842 ft 517 kts 108°
2026-05-03 20:38 23.62183 -109.58991 29153 ft 516 kts 108°
2026-05-03 20:38 23.61114 -109.55254 29459 ft 516 kts 108°
2026-05-03 20:38 23.60044 -109.51519 29761 ft 516 kts 108°
2026-05-03 20:39 23.58974 -109.47786 30050 ft 516 kts 108°
2026-05-03 20:39 23.57903 -109.44048 30301 ft 516 kts 108°
2026-05-03 20:39 23.56832 -109.40313 30526 ft 517 kts 108°
2026-05-03 20:39 23.55772 -109.36622 30757 ft 517 kts 108°
2026-05-03 20:40 23.54696 -109.32879 30998 ft 518 kts 108°
2026-05-03 20:40 23.53620 -109.29138 31241 ft 518 kts 108°
2026-05-03 20:40 23.52543 -109.25392 31490 ft 518 kts 108°
2026-05-03 20:40 23.51465 -109.21649 31734 ft 518 kts 108°
2026-05-03 20:41 23.50382 -109.17904 31973 ft 518 kts 108°
2026-05-03 20:41 23.49296 -109.14163 32211 ft 519 kts 108°
2026-05-03 20:41 23.48207 -109.10415 32467 ft 518 kts 108°
2026-05-03 20:41 23.47136 -109.06729 32739 ft 517 kts 108°
2026-05-03 20:42 23.46051 -109.02989 32994 ft 517 kts 108°
2026-05-03 20:42 23.44969 -108.99255 33227 ft 518 kts 107°
2026-05-03 20:42 23.44213 -108.95434 33447 ft 516 kts 92°
2026-05-03 20:42 23.44396 -108.91563 33647 ft 511 kts 75°
2026-05-03 20:43 23.45511 -108.87937 33823 ft 502 kts 58°
2026-05-03 20:43 23.47423 -108.84826 34007 ft 490 kts 41°
2026-05-03 20:43 23.49942 -108.82412 34165 ft 476 kts 26°
2026-05-03 20:43 23.52800 -108.80790 34329 ft 466 kts 17°
2026-05-03 20:44 23.55775 -108.79375 34511 ft 467 kts 17°
2026-05-03 20:44 23.58748 -108.77955 34716 ft 467 kts 17°
2026-05-03 20:44 23.61720 -108.76528 34940 ft 466 kts 17°
2026-05-03 20:44 23.64681 -108.75102 35160 ft 465 kts 17°
2026-05-03 20:45 23.67637 -108.73676 35379 ft 464 kts 17°
2026-05-03 20:45 23.70590 -108.72251 35594 ft 464 kts 17°
2026-05-03 20:45 23.73538 -108.70827 35809 ft 463 kts 16°
2026-05-03 20:45 23.76485 -108.69406 35959 ft 463 kts 16°
2026-05-03 20:46 23.79437 -108.67985 35984 ft 464 kts 16°
2026-05-03 20:46 23.85302 -108.65162 35992 ft 464 kts 17°
2026-05-03 20:47 23.91223 -108.62308 35981 ft 466 kts 17°
2026-05-03 20:47 23.97159 -108.59441 35982 ft 466 kts 17°
2026-05-03 20:48 24.03092 -108.56566 35979 ft 466 kts 17°
2026-05-03 20:48 24.09029 -108.53693 35986 ft 467 kts 17°
2026-05-03 20:49 24.14937 -108.50835 35990 ft 467 kts 17°
2026-05-03 20:49 24.20887 -108.47956 36008 ft 468 kts 17°
2026-05-03 20:50 24.26831 -108.45058 36007 ft 467 kts 17°
2026-05-03 20:50 24.31766 -108.42654 36010 ft 467 kts 17°
2026-05-03 20:51 24.38666 -108.39300 36003 ft 466 kts 17°
2026-05-03 20:51 24.44593 -108.36412 36000 ft 466 kts 17°
2026-05-03 20:52 24.49512 -108.34008 36019 ft 466 kts 17°
2026-05-03 20:52 24.55433 -108.31116 36008 ft 466 kts 16°
2026-05-03 20:53 24.62321 -108.27754 36006 ft 466 kts 16°
2026-05-03 20:53 24.67288 -108.25330 35998 ft 466 kts 16°
2026-05-03 20:54 24.73174 -108.22445 35998 ft 467 kts 16°
2026-05-03 20:54 24.82072 -108.18082 36008 ft 467 kts 16°
2026-05-03 20:55 24.88007 -108.15170 35995 ft 467 kts 16°
2026-05-03 20:55 24.93942 -108.12249 35990 ft 467 kts 16°
2026-05-03 20:56 24.99840 -108.09340 35996 ft 468 kts 16°
2026-05-03 20:56 25.05780 -108.06415 35984 ft 468 kts 16°
2026-05-03 20:57 25.11724 -108.03489 35991 ft 468 kts 16°
2026-05-03 20:57 25.17667 -108.00562 35991 ft 468 kts 15°
2026-05-03 20:58 25.23574 -107.97645 35977 ft 468 kts 15°
2026-05-03 20:58 25.29549 -107.94855 35972 ft 460 kts
2026-05-03 20:59 25.35714 -107.93474 35972 ft 450 kts
2026-05-03 20:59 25.41893 -107.92376 35970 ft 450 kts
2026-05-03 21:00 25.47036 -107.91454 35988 ft 450 kts
2026-05-03 21:00 25.54230 -107.90159 35976 ft 451 kts
2026-05-03 21:01 25.60422 -107.89045 35972 ft 451 kts
2026-05-03 21:01 25.66616 -107.87933 35974 ft 451 kts
2026-05-03 21:02 25.72812 -107.86820 35972 ft 451 kts
2026-05-03 21:02 25.78971 -107.85712 35991 ft 451 kts
2026-05-03 21:03 25.85168 -107.84596 35985 ft 452 kts
2026-05-03 21:03 25.91378 -107.83476 35988 ft 452 kts
2026-05-03 21:04 25.97587 -107.82343 35986 ft 452 kts
2026-05-03 21:04 26.03755 -107.81228 35994 ft 452 kts
2026-05-03 21:05 26.09967 -107.80108 36001 ft 452 kts
2026-05-03 21:05 26.16180 -107.78975 36007 ft 452 kts
2026-05-03 21:06 26.22393 -107.77846 36000 ft 452 kts
2026-05-03 21:06 26.28557 -107.76725 36015 ft 452 kts
2026-05-03 21:07 26.34758 -107.75600 36041 ft 452 kts
2026-05-03 21:07 26.40969 -107.74468 36006 ft 450 kts
2026-05-03 21:08 26.47143 -107.73343 36002 ft 449 kts 360°
2026-05-03 21:08 26.53252 -107.72231 36003 ft 447 kts 360°
2026-05-03 21:09 26.59406 -107.71108 35991 ft 449 kts 360°
2026-05-03 21:09 26.65552 -107.69977 36007 ft 447 kts 360°
2026-05-03 21:10 26.71684 -107.68851 35989 ft 446 kts 359°
2026-05-03 21:10 26.77769 -107.67740 35993 ft 448 kts 360°
2026-05-03 21:11 26.83930 -107.66617 36000 ft 449 kts 360°
2026-05-03 21:11 26.90107 -107.65479 36005 ft 450 kts 360°
2026-05-03 21:12 26.96292 -107.64337 36038 ft 450 kts 359°
2026-05-03 21:12 27.02438 -107.63207 36035 ft 451 kts 359°
2026-05-03 21:13 27.08617 -107.62067 36035 ft 450 kts 359°
2026-05-03 21:13 27.14803 -107.60928 36036 ft 450 kts 359°
2026-05-03 21:14 27.20974 -107.59787 36036 ft 449 kts 359°
2026-05-03 21:14 27.27152 -107.58637 36058 ft 450 kts 359°
2026-05-03 21:15 27.33288 -107.57502 36052 ft 450 kts 359°
2026-05-03 21:15 27.39465 -107.56362 36053 ft 450 kts 359°
2026-05-03 21:16 27.45648 -107.55216 36128 ft 450 kts 359°
2026-05-03 21:16 27.51832 -107.54064 36191 ft 451 kts 359°
2026-05-03 21:17 27.57967 -107.52917 36235 ft 449 kts 359°
2026-05-03 21:17 27.64130 -107.51772 36270 ft 449 kts 359°
2026-05-03 21:18 27.70301 -107.50623 36289 ft 449 kts 359°
2026-05-03 21:18 27.76473 -107.49472 36283 ft 450 kts 359°
2026-05-03 21:19 27.82606 -107.48324 36268 ft 450 kts 359°
2026-05-03 21:19 27.88783 -107.47170 36200 ft 450 kts 359°
2026-05-03 21:20 27.94963 -107.46011 36127 ft 450 kts 359°
2026-05-03 21:20 28.01144 -107.44849 36049 ft 451 kts 359°
2026-05-03 21:21 28.07291 -107.43695 36027 ft 450 kts 359°
2026-05-03 21:21 28.13472 -107.42538 36029 ft 451 kts 359°
2026-05-03 21:22 28.19650 -107.41374 36013 ft 450 kts 359°
2026-05-03 21:22 28.25831 -107.40209 36003 ft 450 kts 359°
2026-05-03 21:23 28.31975 -107.39051 36013 ft 451 kts 359°
2026-05-03 21:23 28.38167 -107.37877 35998 ft 452 kts 359°
2026-05-03 21:24 28.44370 -107.36707 36012 ft 452 kts 358°
2026-05-03 21:24 28.50573 -107.35536 35994 ft 452 kts 358°
2026-05-03 21:25 28.56739 -107.34362 35990 ft 452 kts 359°
2026-05-03 21:25 28.62949 -107.33174 35980 ft 452 kts 359°
2026-05-03 21:26 28.69157 -107.31993 35972 ft 453 kts 358°
2026-05-03 21:26 28.75378 -107.30815 35995 ft 453 kts 358°
2026-05-03 21:27 28.81554 -107.29643 35989 ft 453 kts 358°
2026-05-03 21:27 28.87768 -107.28465 35987 ft 453 kts 358°
2026-05-03 21:28 28.93984 -107.27276 35988 ft 453 kts 358°
2026-05-03 21:28 29.00200 -107.26081 35992 ft 452 kts 358°
2026-05-03 21:29 29.06391 -107.24896 35971 ft 450 kts 358°
2026-05-03 21:29 29.12536 -107.23723 35977 ft 452 kts 358°
2026-05-03 21:30 29.18736 -107.22536 35984 ft 452 kts 358°
2026-05-03 21:30 29.24945 -107.21345 35982 ft 452 kts 358°
2026-05-03 21:31 29.31155 -107.20142 35989 ft 453 kts 358°
2026-05-03 21:31 29.37340 -107.18949 35975 ft 454 kts 358°
2026-05-03 21:32 29.43575 -107.17752 35964 ft 455 kts 358°
2026-05-03 21:32 29.49817 -107.16552 35963 ft 455 kts 358°
2026-05-03 21:33 29.56065 -107.15346 35964 ft 455 kts 358°
2026-05-03 21:33 29.62273 -107.14143 35959 ft 456 kts 358°
2026-05-03 21:34 29.68523 -107.12930 35959 ft 455 kts 358°
2026-05-03 21:34 29.74775 -107.11719 35961 ft 455 kts 358°
2026-05-03 21:35 29.81020 -107.10507 35961 ft 455 kts 358°
2026-05-03 21:35 29.87221 -107.09302 35945 ft 454 kts 358°
2026-05-03 21:36 29.93463 -107.08079 35923 ft 455 kts 358°
2026-05-03 21:36 29.99699 -107.06866 35928 ft 454 kts 358°
2026-05-03 21:37 30.05924 -107.05657 35920 ft 454 kts 358°
2026-05-03 21:37 30.12108 -107.04458 35942 ft 454 kts 358°
2026-05-03 21:38 30.18361 -107.03233 35923 ft 457 kts 358°
2026-05-03 21:38 30.24627 -107.02003 35926 ft 457 kts 358°
2026-05-03 21:39 30.30908 -107.00759 35934 ft 458 kts 358°
2026-05-03 21:39 30.37200 -106.99517 35942 ft 459 kts 358°
2026-05-03 21:40 30.43452 -106.98287 35942 ft 459 kts 358°
2026-05-03 21:40 30.49747 -106.97049 35937 ft 459 kts 358°
2026-05-03 21:41 30.56046 -106.95808 35945 ft 460 kts 358°
2026-05-03 21:41 30.62354 -106.94561 35950 ft 460 kts 358°
2026-05-03 21:42 30.68629 -106.93320 35967 ft 460 kts 358°
2026-05-03 21:42 30.74932 -106.92067 35950 ft 459 kts 358°
2026-05-03 21:43 30.81237 -106.90821 35950 ft 460 kts 358°
2026-05-03 21:43 30.87548 -106.89573 35958 ft 460 kts 358°
2026-05-03 21:44 30.93825 -106.88331 35964 ft 461 kts 358°
2026-05-03 21:44 31.00134 -106.87070 35952 ft 460 kts 358°
2026-05-03 21:45 31.06440 -106.85806 35957 ft 460 kts 358°
2026-05-03 21:45 31.12754 -106.84548 35961 ft 461 kts 358°
2026-05-03 21:46 31.19034 -106.83296 35970 ft 461 kts 358°
2026-05-03 21:46 31.25357 -106.82037 35977 ft 460 kts 358°
2026-05-03 21:47 31.31661 -106.80769 35981 ft 460 kts 358°
2026-05-03 21:47 31.37965 -106.79503 35980 ft 460 kts 358°
2026-05-03 21:48 31.44232 -106.78248 35983 ft 460 kts 358°
2026-05-03 21:48 31.50549 -106.76973 36052 ft 461 kts 358°
2026-05-03 21:49 31.56839 -106.75697 36029 ft 458 kts 358°
2026-05-03 21:49 31.63119 -106.74433 36050 ft 458 kts 358°
2026-05-03 21:50 31.69369 -106.73167 36074 ft 459 kts 358°
2026-05-03 21:50 31.75643 -106.72159 36111 ft 445 kts 348°
2026-05-03 21:51 31.78687 -106.72332 36155 ft 431 kts 340°
2026-05-03 21:51 31.81583 -106.73007 36149 ft 419 kts 333°
2026-05-03 21:51 31.84293 -106.74132 36144 ft 408 kts 325°
2026-05-03 21:51 31.86865 -106.75515 36141 ft 407 kts 325°
2026-05-03 21:52 31.92018 -106.78277 36134 ft 408 kts 325°
2026-05-03 21:52 31.97158 -106.81005 36117 ft 408 kts 325°
2026-05-03 21:53 32.02333 -106.83757 36127 ft 408 kts 324°
2026-05-03 21:53 32.07503 -106.86510 36051 ft 407 kts 325°
2026-05-03 21:54 32.12672 -106.89269 36108 ft 408 kts 324°
2026-05-03 21:54 32.17807 -106.92034 36141 ft 409 kts 324°
2026-05-03 21:55 32.22985 -106.94813 36156 ft 409 kts 325°
2026-05-03 21:55 32.28174 -106.97589 36160 ft 410 kts 325°
2026-05-03 21:56 32.33365 -107.00371 36162 ft 410 kts 324°
2026-05-03 21:56 32.35958 -107.01767 36005 ft 409 kts 324°
2026-05-03 21:56 32.38515 -107.03144 36007 ft 409 kts 325°
2026-05-03 21:57 32.43697 -107.05937 35990 ft 410 kts 324°
2026-05-03 21:57 32.48882 -107.08737 35995 ft 410 kts 325°
2026-05-03 21:58 32.54077 -107.11536 36011 ft 409 kts 324°
2026-05-03 21:58 32.59259 -107.14339 36004 ft 409 kts 324°
2026-05-03 21:59 32.64409 -107.17132 36004 ft 410 kts 324°
2026-05-03 21:59 32.69605 -107.19948 36007 ft 411 kts 324°
2026-05-03 22:00 32.74807 -107.22759 36047 ft 411 kts 324°
2026-05-03 22:00 32.79988 -107.25569 36001 ft 408 kts 324°
2026-05-03 22:01 32.85115 -107.28366 36008 ft 409 kts 324°
2026-05-03 22:01 32.90286 -107.31184 36010 ft 409 kts 324°
2026-05-03 22:02 32.95459 -107.34012 36015 ft 409 kts 324°
2026-05-03 22:02 32.98135 -107.35264 36013 ft 421 kts 332°
2026-05-03 22:02 33.01065 -107.35953 36027 ft 438 kts 342°
2026-05-03 22:03 33.04174 -107.35965 36020 ft 457 kts 354°
2026-05-03 22:03 33.07360 -107.35272 36093 ft 470 kts
2026-05-03 22:03 33.13707 -107.33554 36114 ft 471 kts
2026-05-03 22:04 33.20104 -107.31842 36122 ft 471 kts
2026-05-03 22:04 33.26507 -107.30139 36133 ft 471 kts